Location: Équennes
(49.7375°N, 1.9622°E)
Time: 01:41:59
(UTC+00:00)

Okean O Rocket - Pass Details

Date: 28 January 2023
Orbit: 620 x 643 km, 98.1° (Epoch: 30 March)

Event Time Altitude Azimuth Distance (km) Brightness Sun altitude
Exits shadow 18:47:09 11° 158° (SSE) 1,935 3.9 -20.4°
Maximum altitude 18:51:20 76° 74° (ENE) 657 1.4 -21.1°
Drops below altitude 10° 18:55:46 10° 349° (NNW) 2,033 4.3 -21.8°
Sets 18:57:59 0° 348° (NNW) 2,951 5.2 -22.2°
